Regional Weather Roundup
Issued by NWS

Home | Current Version | Previous Version | Graphics & Text | Print | Product List | Glossary On
Versions: 1 2 3 4 5 6 7 8 9 10 11 12 13 14 15 16 17 18 19 20 21 22 23 24 25 26 27 28 29 30 31 32 33 34 35 36 37 38 39 40 41 42 43 44 45 46 47 48 49 50
000
ASUS43 KDMX 051407
RWRIA

WEATHER ROUNDUP FOR IOWA
NATIONAL WEATHER SERVICE DES MOINES IA
900 AM CDT TUE MAY 05 2015

NOTE: "FAIR" INDICATES FEW OR NO CLOUDS BELOW 12,000 FEET WITH NO
SIGNIFICANT WEATHER AND/OR OBSTRUCTIONS TO VISIBILITY.

* - THESE STATIONS ARE NOT NWS STATIONS...THUS NOT UNDER NWS
QUALITY CONTROL.  THEY ALSO DO NOT REPORT WEATHER SUCH
AS PRECIPITATION OR FOG.

IAZ001>003-012>014-020>022-031>034-043>046-051500-
   NORTHWEST IOWA

CITY           SKY/WX    TMP DP  RH WIND       PRES   REMARKS
CARROLL *      CLOUDY    59  59 100 CALM      30.10R FOG
CHEROKEE *     CLOUDY    54  48  82 E9        30.11S
DENISON *      CLOUDY    57  57 100 E7        30.06F FOG
LE MARS *      CLOUDY    57  48  72 E7        30.10S
ORANGE CITY *  PTSUNNY   57  46  67 E7        30.10R
SHELDON *      PTSUNNY   59  46  63 E16       30.09S
SIOUX CITY     CLOUDY    56  52  86 E9        30.09R
SPENCER        CLOUDY    55  50  83 E13       30.11S
STORM LAKE *   CLOUDY    54  52  94 E7        30.12R
$$

IAZ055>058-069>071-079>083-090>094-051500-
   SOUTHWEST IOWA

CITY           SKY/WX    TMP DP  RH WIND       PRES   REMARKS
ATLANTIC *     PTSUNNY   63  63 100 S9        30.10S
AUDUBON *      MOSUNNY   61  59  94 S9        30.11R
CLARINDA *     CLOUDY    63  63 100 SE5       30.13R
COUNCIL BLFS * PTSUNNY   63  63 100 SE9       30.10R
CRESTON *      PTSUNNY   63  63 100 SE8       30.13R
HARLAN  *      PTSUNNY   63  63 100 S8        30.12S
LAMONI         PTSUNNY   65  60  84 SE12      30.13R
RED OAK *      CLOUDY    63  63 100 CALM      30.11S
SHENANDOAH *   CLOUDY    63  63 100 SE6       30.12R
$$

IAZ047>049-059>061-072>074-084-051500-
   CENTRAL IOWA

CITY           SKY/WX    TMP DP  RH WIND       PRES   REMARKS
AMES           LGT RAIN  62  61  96 S5        30.10R FOG
ANKENY *       MOSUNNY   64  64 100 S9        30.10S FOG
CHARITON *     CLOUDY    64  61  88 S8        30.12S
DES MOINES     CLOUDY    64  61  90 S8        30.11R
GRINNELL*      LGT RAIN  61  59  94 SE3       30.12S
KNOXVILLE *    PTSUNNY   64  61  88 S8        30.11R
MARSHALLTOWN   LGT RAIN  60  59  96 SE7       30.11S FOG
PELLA *        CLOUDY    63  63 100 S7        30.13S
PERRY *        CLOUDY    63  63 100 S12       30.10R FOG
$$

IAZ004>006-015-016-023>025-035-036-051500-
   NORTH CENTRAL IOWA

CITY           SKY/WX    TMP DP  RH WIND       PRES   REMARKS
ALGONA *       CLOUDY    55  55 100 E10       30.13R FOG
CLARION *      CLOUDY    57  57 100 E15       30.11S FOG
ESTHERVILLE    CLOUDY    54  50  86 E12       30.13R
FORT DODGE *   CLOUDY    57  54  88 E9        30.12R
MASON CITY     LGT RAIN  54  53  97 E16       30.16R FOG
FOREST CITY *  RAIN      54  54 100 E12       30.14S
IOWA FALLS *   DRIZZLE   59  57  94 E9        30.12S
$$

IAZ007>011-017>019-026>030-037>042-050>054-066-051500-
   NORTHEAST IOWA

CITY           SKY/WX    TMP DP  RH WIND       PRES   REMARKS
CEDAR RAPIDS   CLOUDY    63  63 100 SE6       30.14R FOG
CHARLES CITY * LGT RAIN  52  52 100 E16       30.17R
CLINTON *      CLOUDY    55  54  94 E10       30.21R
DECORAH *      CLOUDY    52  50  93 E16G24    30.20R
DUBUQUE        LGT RAIN  52  50  93 E12       30.20R
MONTICELLO *   CLOUDY    55  55 100 E7        30.18R
OELWEIN *      DRIZZLE   54  52  94 E17       30.17S
WATERLOO       CLOUDY    56  54  93 E15       30.14R FOG
$$

IAZ064-065-067-068-078-051500-
   EAST CENTRAL IOWA

CITY           SKY/WX    TMP DP  RH WIND       PRES   REMARKS
DAVENPORT      CLOUDY    59  57  93 E8        30.18R FOG
IOWA CITY      CLOUDY    65  63  93 SE7       30.16R
MT. PLEASANT * CLOUDY    63  63 100 SE9       30.15S
MUSCATINE *    CLOUDY    66  63  88 SE7       30.15S
QUAD CITIES    CLOUDY    59  57  93 E7        30.17R FOG
$$

IAZ062-063-075>077-085>089-095>099-051500-
   SOUTHEAST IOWA

CITY           SKY/WX    TMP DP  RH WIND       PRES   REMARKS
BURLINGTON     PTSUNNY   65  62  90 SE3       30.15S
FAIRFIELD *    SUNNY     66  63  88 S9        30.14R
FORT MADISON *   N/A     64  63  94 CALM      30.16S
KEOKUK *       MOSUNNY   66  63  88 SE5       30.15R
OSKALOOSA *      N/A     64  61  88 SW8       30.13S
CENTERVILLE *  SUNNY     64  64 100 SE7       30.15S
OTTUMWA        MOSUNNY   65  63  93 S8        30.13S
WASHINGTON *   MOSUNNY   66  66 100 S10G16    30.13S
$$

ABBREVIATIONS USED IN REMARKS
   TC - TEMPERATURES IN CELSIUS
  WCI - WIND CHILL INDEX
   HX - HEAT INDEX
  VSB - VISIBILITY
$$




USA.gov is the U.S. government's official web portal to all federal, state and local government web resources and services.